This is the latest recevied weather packets stored in our database for station/object DH4SBM. If no packets are shown the sender has not sent any weather packets the latest 10 day(s).
| Time | Temp. | Humidity | Pressure | Rain* | Wind** | Luminosity | Snow |
|---|---|---|---|---|---|---|---|
| 1777804542 | 22.22° C | 45% | 1016.6 hPa | 0 mm | - | 831 W/m² | - |
| 1777803942 | 22.22° C | 45% | 1016.7 hPa | 0 mm | - | 657 W/m² | - |
| 1777803342 | 21.67° C | 46% | 1016.8 hPa | 0 mm | - | 817 W/m² | - |
| 1777802742 | 20.56° C | 46% | 1016.9 hPa | 0 mm | - | 805 W/m² | - |
| 1777802142 | 21.11° C | 47% | 1016.9 hPa | 0 mm | - | 821 W/m² | - |
| 1777801542 | 21.11° C | 47% | 1017.1 hPa | 0 mm | - | 714 W/m² | - |
| 1777800942 | 20° C | 48% | 1017.2 hPa | 0 mm | - | 598 W/m² | - |
| 1777800342 | 20° C | 49% | 1017.3 hPa | 0 mm | - | 283 W/m² | - |
| 1777799742 | 20° C | 50% | 1017.4 hPa | 0 mm | - | 418 W/m² | - |
| 1777799142 | 19.44° C | 49% | 1017.4 hPa | 0 mm | - | 475 W/m² | - |
| 1777798542 | 20° C | 51% | 1017.4 hPa | 0 mm | - | 555 W/m² | - |
| 1777797942 | 19.44° C | 49% | 1017.5 hPa | 0 mm | - | 534 W/m² | - |
| 1777797342 | 19.44° C | 49% | 1017.6 hPa | 0 mm | - | 529 W/m² | - |
| 1777796742 | 18.89° C | 51% | 1017.6 hPa | 0 mm | - | 717 W/m² | - |
| 1777796142 | 18.89° C | 53% | 1017.6 hPa | 0 mm | - | 396 W/m² | - |
| 1777795542 | 18.33° C | 54% | 1017.5 hPa | 0 mm | - | 631 W/m² | - |
| 1777794942 | 17.22° C | 58% | 1017.6 hPa | 0 mm | - | 452 W/m² | - |
| 1777794342 | 17.22° C | 63% | 1017.5 hPa | 0 mm | - | 329 W/m² | - |
| 1777793742 | 16.67° C | 65% | 1017.5 hPa | 0 mm | - | 327 W/m² | - |
| 1777793142 | 16.67° C | 66% | 1017.4 hPa | 0 mm | - | 176 W/m² | - |
| 1777792542 | 16.67° C | 66% | 1017.4 hPa | 0 mm | - | 186 W/m² | - |
| 1777791942 | 16.67° C | 65% | 1017.4 hPa | 0 mm | - | 234 W/m² | - |
| 1777791341 | 15.56° C | 67% | 1017.4 hPa | 0 mm | - | 438 W/m² | - |
| 1777790742 | 15° C | 67% | 1017.5 hPa | 0 mm | - | 223 W/m² | - |
| 1777790138 | 14.44° C | 69% | 1017.6 hPa | 0 mm | - | 257 W/m² | - |
* Rain latest hour (hover to see other rain measurements)
** Current wind speed in m/s (hover to see current wind gust speed)